DELTA 1 DEB, 2775

Orbit data source: Space-Track

DELTA 1 DEB, 2775 is space debris in SSO originally from a launch on Sun, 02 Oct 1966 UTC launched from the Air Force Western Test Range (AFWTR). Debris objects in space refer to the collection of defunct objects orbiting the Earth. Examples of debris include non-operational satellites, rocket bodies, and fragments generated from explosions, collisions, or faulty payload assembly.

Loading next visibility...
DELTA 1 DEB details
Identifier
2775, 1966-087D
Orbit
SSO
Last TLE update20 hours ago
Origin
Flag of USGSFC (US)
ManufacturerUnknown
MissionSpacecraft
Bus & MotorUnknown
Mass1 kg wet, 1 kg dry
Launch date (UTC)
1966-10-02 (58 years ago)
Launch vehicleUnknown
Launch site
Air Force Western Test Range (AFWTR)
Object type
Payload
Rocket body
Debris
Shape & HBRCyl + 1 Cable, 3.5 m
Radar Cross Section3.500 m², Small (<0.1 m²)

Expand to show TLE details & history

TLE from 20 hours ago
0 DELTA 1 DEB
1 02775U 66087D   25042.74586561 -.00000007  00000-0  16717-3 0  9996
2 02775 100.9384  64.8835 0125217  56.8422   5.3337 12.71676367707996
Epoch: 2025-02-11T17:54Z
Definitive object data (Epoch: 2025-02-11T17:54:02.788Z)
Latitude60.48106°
Longitude-5.52787°
Altitude1,288.605 km
Speed7.262 km/s
True Right ascension03h 00m 07s
True Declination60° 20' 37"
Sunlit
Object was in daylight at TLE epoch
Visualization TLE readout
Latitude-44.34146°
Longitude25.9615°
Altitude1,408.094 km
Speed7.148 km/s
Apparent Right ascension04h 52m 54s
Apparent Declination-42° 13' 50"
Sunlit
Object is in daylight
Visualization observer readout
Local Sidereal Time16:37:54
Azimuth229.459° WSW
Elevation-86.348°
Doppler factor1
Orbital elements
Apogee altitude1,469.642 km
Perigee altitude1,275.538 km
Semi-major axis7,750.727 km
Eccentricity0.0125217
Inclination100.9384°
RAAN64.8835°
Arg. of periapsis56.8422°
True anomaly5.46919°
Mean anomaly5.3337°
Eccentric anomaly5.40123°
Mean motion3.18075 °/min
BSTAR0.00016717
Orbital period113.18 mins
Loading maneuver chart data...
Loading historical data...
Loading historical data...
Loading historical data...
Loading historical data...
Loading historical data...
Loading historical data...
Loading historical data...

DELTA 1 DEB Visibility forecast

Observer location: undefined°, undefined

Span
Click to sort rows by Start time (UTC) header in descending order
Start Az.
Max El. time (UTC)
Max El. Az.
Max El.
End time (UTC)
End Az.
15 mins2025-02-12 14:55:52.871Z7.965° NNE2025-02-12 15:02:52.871Z304.604° NW39.806°2025-02-12 15:10:52.871Z217.707° SW
11 mins2025-02-12 23:56:52.871Z111.739° ESE2025-02-13 00:01:52.871Z58.247° ENE27.868°2025-02-13 00:07:52.871Z2.649° NNE
13 mins2025-02-13 01:46:52.871Z187.323° SSW2025-02-13 01:52:52.871Z262.086° W38.152°2025-02-13 01:59:52.871Z333.6° NNW
13 mins2025-02-13 13:37:52.871Z31.436° NE2025-02-13 13:43:52.871Z95.766° ESE36.829°2025-02-13 13:50:52.871Z171.403° S
|